TimeEST,TemperatureF,Dew PointF,Humidity,Sea Level PressureIn,VisibilityMPH,Wind Direction,Wind SpeedMPH,Gust SpeedMPH,PrecipitationIn,Events,Conditions,WindDirDegrees,DateUTC
12:15 AM,59.0,59.0,100,30.00,0.8,Calm,Calm,-,N/A,,Unknown,0,2014-02-24 05:15:00
12:35 AM,59.0,59.0,100,30.00,1.5,Calm,Calm,-,N/A,,Scattered Clouds,0,2014-02-24 05:35:00
12:55 AM,59.0,59.0,100,30.00,7.0,Calm,Calm,-,N/A,,Scattered Clouds,0,2014-02-24 05:55:00
1:15 AM,59.0,59.0,100,30.00,5.0,Calm,Calm,-,N/A,,Mostly Cloudy,0,2014-02-24 06:15:00
1:35 AM,59.0,59.0,100,30.00,4.0,WNW,5.8,-,N/A,,Overcast,290,2014-02-24 06:35:00
1:55 AM,59.0,59.0,100,30.00,1.8,WNW,10.4,-,N/A,,Overcast,290,2014-02-24 06:55:00
2:15 AM,59.0,59.0,100,30.00,2.5,WNW,5.8,-,N/A,,Overcast,290,2014-02-24 07:15:00
2:35 AM,60.8,59.0,94,29.99,5.0,WNW,5.8,-,N/A,,Overcast,290,2014-02-24 07:35:00
2:55 AM,60.8,60.8,100,29.99,5.0,WNW,5.8,-,N/A,,Overcast,290,2014-02-24 07:55:00
3:15 AM,60.8,60.8,100,29.98,7.0,WNW,8.1,-,N/A,,Overcast,290,2014-02-24 08:15:00
3:35 AM,60.8,60.8,100,29.98,10.0,WNW,5.8,-,N/A,,Overcast,290,2014-02-24 08:35:00
3:55 AM,60.8,60.8,100,29.98,10.0,West,3.5,-,N/A,,Scattered Clouds,280,2014-02-24 08:55:00
4:15 AM,60.8,59.0,94,29.98,10.0,WNW,4.6,-,N/A,,Scattered Clouds,290,2014-02-24 09:15:00
4:35 AM,60.8,60.8,100,29.98,10.0,WNW,5.8,-,N/A,,Mostly Cloudy,290,2014-02-24 09:35:00
4:55 AM,60.8,60.8,100,29.98,10.0,West,5.8,-,N/A,,Overcast,280,2014-02-24 09:55:00
5:15 AM,60.8,60.8,100,29.98,10.0,West,3.5,-,N/A,,Mostly Cloudy,280,2014-02-24 10:15:00
5:35 AM,60.8,60.8,100,29.99,10.0,Calm,Calm,-,N/A,,Overcast,0,2014-02-24 10:35:00
5:55 AM,60.8,60.8,100,30.00,10.0,Calm,Calm,-,N/A,,Overcast,0,2014-02-24 10:55:00
6:15 AM,60.8,60.8,100,30.01,10.0,Calm,Calm,-,N/A,,Overcast,0,2014-02-24 11:15:00
6:35 AM,60.8,60.8,100,30.02,10.0,Calm,Calm,-,N/A,,Overcast,0,2014-02-24 11:35:00
6:55 AM,60.8,60.8,100,30.02,10.0,Calm,Calm,-,N/A,,Overcast,0,2014-02-24 11:55:00
7:15 AM,60.8,60.8,100,30.03,10.0,WNW,3.5,-,N/A,,Overcast,290,2014-02-24 12:15:00
7:35 AM,60.8,60.8,100,30.03,10.0,WNW,3.5,-,N/A,,Overcast,300,2014-02-24 12:35:00
7:55 AM,62.6,60.8,94,30.04,10.0,NW,3.5,-,N/A,,Overcast,310,2014-02-24 12:55:00
8:15 AM,62.6,60.8,94,30.04,10.0,Calm,Calm,-,N/A,,Mostly Cloudy,0,2014-02-24 13:15:00
8:35 AM,64.4,60.8,88,30.04,10.0,NNW,4.6,-,N/A,,Scattered Clouds,330,2014-02-24 13:35:00
8:55 AM,64.4,60.8,88,30.05,10.0,NW,6.9,-,N/A,,Clear,320,2014-02-24 13:55:00
9:15 AM,66.2,60.8,83,30.06,10.0,NNW,5.8,-,N/A,,Scattered Clouds,330,2014-02-24 14:15:00
9:35 AM,66.2,60.8,83,30.06,10.0,NW,8.1,-,N/A,,Mostly Cloudy,320,2014-02-24 14:35:00
9:55 AM,68.0,59.0,73,30.07,10.0,NNW,8.1,-,N/A,,Mostly Cloudy,330,2014-02-24 14:55:00
10:15 AM,68.0,59.0,73,30.07,10.0,NNW,6.9,-,N/A,,Scattered Clouds,330,2014-02-24 15:15:00
10:35 AM,69.8,57.2,64,30.07,10.0,NNW,10.4,-,N/A,,Clear,340,2014-02-24 15:35:00
10:55 AM,69.8,55.4,60,30.08,10.0,NW,9.2,-,N/A,,Clear,310,2014-02-24 15:55:00
11:15 AM,69.8,55.4,60,30.08,10.0,WNW,6.9,-,N/A,,Clear,300,2014-02-24 16:15:00
11:35 AM,71.6,55.4,57,30.08,10.0,WNW,9.2,-,N/A,,Clear,300,2014-02-24 16:35:00
11:55 AM,71.6,53.6,53,30.07,10.0,NNW,5.8,-,N/A,,Clear,340,2014-02-24 16:55:00
12:15 PM,73.4,51.8,47,30.06,10.0,NW,6.9,-,N/A,,Clear,310,2014-02-24 17:15:00
12:35 PM,73.4,51.8,47,30.06,10.0,NNE,6.9,-,N/A,,Clear,30,2014-02-24 17:35:00
12:55 PM,73.4,50.0,44,30.05,10.0,North,3.5,-,N/A,,Clear,360,2014-02-24 17:55:00
1:15 PM,73.4,50.0,44,30.04,10.0,NNE,3.5,-,N/A,,Clear,30,2014-02-24 18:15:00
1:35 PM,73.4,48.2,41,30.03,10.0,ENE,4.6,-,N/A,,Clear,60,2014-02-24 18:35:00
1:55 PM,73.4,48.2,41,30.03,10.0,NE,3.5,-,N/A,,Clear,50,2014-02-24 18:55:00
2:15 PM,73.4,48.2,41,30.02,10.0,NNW,3.5,-,N/A,,Scattered Clouds,330,2014-02-24 19:15:00
2:35 PM,75.2,48.2,38,30.01,10.0,NE,4.6,-,N/A,,Mostly Cloudy,40,2014-02-24 19:35:00
2:55 PM,73.4,55.4,53,30.01,10.0,ESE,8.1,-,N/A,,Overcast,110,2014-02-24 19:55:00
3:15 PM,71.6,55.4,57,30.01,10.0,ESE,9.2,-,N/A,,Scattered Clouds,110,2014-02-24 20:15:00
3:35 PM,71.6,55.4,57,30.01,10.0,SE,9.2,-,N/A,,Scattered Clouds,140,2014-02-24 20:35:00
3:55 PM,69.8,55.4,60,30.02,10.0,SE,8.1,-,N/A,,Scattered Clouds,130,2014-02-24 20:55:00
4:15 PM,68.0,55.4,64,30.03,10.0,SE,10.4,-,N/A,,Clear,130,2014-02-24 21:15:00
4:35 PM,68.0,55.4,64,30.04,10.0,East,11.5,-,N/A,,Clear,90,2014-02-24 21:35:00
4:55 PM,64.4,55.4,73,30.04,10.0,East,10.4,-,N/A,,Clear,100,2014-02-24 21:55:00
5:15 PM,64.4,55.4,73,30.05,10.0,ESE,6.9,-,N/A,,Clear,120,2014-02-24 22:15:00
5:35 PM,62.6,55.4,77,30.05,10.0,ESE,6.9,-,N/A,,Clear,120,2014-02-24 22:35:00
5:55 PM,62.6,55.4,77,30.06,10.0,ESE,6.9,-,N/A,,Clear,110,2014-02-24 22:55:00
6:15 PM,60.8,55.4,82,30.07,10.0,SE,5.8,-,N/A,,Clear,130,2014-02-24 23:15:00
6:35 PM,60.8,55.4,82,30.07,10.0,ESE,3.5,-,N/A,,Clear,110,2014-02-24 23:35:00
6:55 PM,60.8,55.4,82,30.08,10.0,Calm,Calm,-,N/A,,Clear,0,2014-02-24 23:55:00
7:15 PM,59.0,55.4,88,30.08,10.0,Calm,Calm,-,N/A,,Clear,0,2014-02-25 00:15:00
7:35 PM,59.0,55.4,88,30.09,10.0,Calm,Calm,-,N/A,,Clear,0,2014-02-25 00:35:00
7:55 PM,59.0,55.4,88,30.10,10.0,Calm,Calm,-,N/A,,Clear,0,2014-02-25 00:55:00
8:15 PM,55.4,53.6,94,30.10,10.0,Calm,Calm,-,N/A,,Clear,0,2014-02-25 01:15:00
8:35 PM,53.6,53.6,100,30.11,10.0,Calm,Calm,-,N/A,,Clear,0,2014-02-25 01:35:00
8:55 PM,53.6,53.6,100,30.11,10.0,Calm,Calm,-,N/A,,Clear,0,2014-02-25 01:55:00
9:15 PM,53.6,53.6,100,30.11,10.0,Calm,Calm,-,N/A,,Clear,0,2014-02-25 02:15:00
9:35 PM,53.6,51.8,94,30.11,5.0,Calm,Calm,-,N/A,,Clear,0,2014-02-25 02:35:00
9:55 PM,53.6,51.8,94,30.11,2.0,Calm,Calm,-,N/A,,Clear,0,2014-02-25 02:55:00
10:15 PM,51.8,51.8,100,30.11,1.8,Calm,Calm,-,N/A,,Unknown,0,2014-02-25 03:15:00
10:35 PM,53.6,51.8,94,30.11,1.2,Calm,Calm,-,N/A,,Unknown,0,2014-02-25 03:35:00
10:55 PM,51.8,51.8,100,30.10,0.8,Calm,Calm,-,N/A,,Unknown,0,2014-02-25 03:55:00
11:15 PM,53.6,51.8,94,30.09,5.0,Calm,Calm,-,N/A,,Clear,0,2014-02-25 04:15:00
11:35 PM,51.8,51.8,100,30.09,5.0,Calm,Calm,-,N/A,,Clear,0,2014-02-25 04:35:00
11:55 PM,53.6,53.6,100,30.09,7.0,Calm,Calm,-,N/A,,Clear,0,2014-02-25 04:55:00